Regional Weather Roundup
Issued by NWS

Home | Current Version | Previous Version | Graphics & Text | Print | Product List | Glossary On
Versions: 1 2 3 4 5 6 7 8 9 10 11 12 13 14 15 16 17 18 19 20 21 22 23 24 25 26 27 28 29 30 31 32 33 34 35 36 37 38 39 40 41 42 43 44 45 46 47 48 49 50
663
ASUS43 KBIS 242002
RWRND

NORTH DAKOTA REGIONAL WEATHER ROUNDUP
NATIONAL WEATHER SERVICE BISMARCK ND
300 PM CDT SAT SEP 24 2016

NOTE: "FAIR" INDICATES FEW OR NO CLOUDS BELOW 12,000 FEET WITH NO
SIGNIFICANT WEATHER AND/OR OBSTRUCTIONS TO VISIBILITY.


NDZ001>003-009>011-017-242100-
NORTHWEST NORTH DAKOTA

CITY           SKY/WX    TMP DP  RH WIND       PRES   REMARKS
WILLISTON      LGT RAIN  57  54  89 N16       29.72S FOG
MINOT          CLOUDY    74  65  73 SE10      29.68S
MINOT AFB      PTSUNNY   73  65  76 S13       29.67S
$$

NDZ018>021-031>035-040>046-242100-
SOUTHWEST NORTH DAKOTA

CITY           SKY/WX    TMP DP  RH WIND       PRES   REMARKS
BISMARCK       MOSUNNY   76  60  57 S18G29    29.70F
DICKINSON      MOSUNNY   67  53  61 S18       29.67S
GARRISON         N/A     76  67  73 SE9G21    29.67F
HETTINGER ARPT MOSUNNY   68  49  50 SW21G30   29.73S
$$

NDZ004>008-012>016-024-026-027-054-242100-
NORTHEAST NORTH DAKOTA

CITY           SKY/WX    TMP DP  RH WIND       PRES   REMARKS
GRAND FORKS    CLOUDY    77  66  68 SE22      29.79F
GRND FRKS AFB  CLOUDY    75  67  77 S13       29.79F
DEVILS LAKE    CLOUDY    70  66  87 SE12      29.76F
$$

NDZ022-023-025-028>030-036>039-047>053-242100-
SOUTHEAST NORTH DAKOTA

CITY           SKY/WX    TMP DP  RH WIND       PRES   REMARKS
FARGO          CLOUDY    79  65  62 SE18G29   29.81F
JAMESTOWN      CLOUDY    73  67  81 S14       29.76F
$$





USA.gov is the U.S. government's official web portal to all federal, state and local government web resources and services.